FENGYUN 1C DEB, 29994

Orbit data source: Space-Track

FENGYUN 1C DEB, 29994 is space debris in SSO originally from a launch on Mon, 10 May 1999 UTC launched from the Taiyaun Space Center, China (TSC). Fengyun 1C debris stems from the Chinese weather satellite Fengyun-1C, which was intentionally destroyed by a Chinese anti-satellite missile in 2007. This event dramatically increased the amount of space debris, with thousands of trackable fragments posing hazards to satellites and human spaceflight. The Fengyun 1C debris cloud has become a focal point in discussions about space sustainability and the need for international regulations to prevent the creation of new debris.

Loading next visibility...
Identifier
29994, 1999-025LU
Orbit
SSO
Country
Flag of CNCN / PRC
Related business
Manufacturer
Unknown
Mission
Spacecraft
Bus & Motor
Unknown
Mass
Unknown
Launch date (UTC)
1999-05-10 (27 years ago)
Launch vehicle
Unknown
Launch site
Taiyaun Space Center, China (TSC)
Object type
Payload
Rocket body
Debris
Shape & HBR
Unknown shape, 0.2 m
Radar Cross Section
Medium (>0.1 m² and <1 m²)

Expand to show TLE details & history
Last TLE update: 10 hours ago

TLE from 10 hours ago
0 FENGYUN 1C DEB
1 29994U 99025LU  26238.08632764  .00000406  00000-0  26964-3 0  9995
2 29994  98.8035 267.1802 0129270 218.0970 210.6036 14.02793678  3202
Epoch: 2026-08-26T02:04Z
TLE epoch observation values (Epoch: 2026-08-26T02:04:18.708Z)
Latitude
66.42971°
Longitude
-118.92201°
Altitude
976.707 km
Speed
7.328 km/s
True Right ascension
16h 26m 00s
True Declination
66° 18' 26"
Sunlit
Object was in daylight at epoch
Visualization orbit readout
Latitude
Unknown
Longitude
Unknown
Altitude
Unknown
Speed
Unknown
Apparent Right ascension
Unknown
Apparent Declination
Unknown
Sunlit
N/A
Visualization observer readout
Local Sidereal Time
02:59:02
Azimuth
Unknown
Elevation
Unknown
Doppler factor
Unknown
Orbital elements
Apogee altitude
975.166 km
Perigee altitude
787.48 km
Semi-major axis
7,259.46 km
Eccentricity
0.01293
Inclination
98.8035°
RAAN
267.1802°
Arg. of periapsis
218.097°
True anomaly
209.85984°
Mean anomaly
210.6036°
Eccentric anomaly
210.23069°
Mean motion
3.50903 °/min
Orbital period
102.59 mins
BSTAR
0.00026964
Loading maneuver chart data...
Computing Atmospheric mass density...

Documentation

Showing up to 5 results
|